Showing default

GONETS M 13 (M23), 40554

Orbit data source: Space-Track

GONETS M 13 (M23), 40554 is a payload satellite owned by Gonets (CIS) in LEO that was launched on Tue, 31 Mar 2015 UTC via an ROKOT launch vehicle from the Plesetsk Missile And Space Complex (PKMTR). Payload-class satellites include a variety of spacecraft equipped with specific instruments for various scientific and technological missions. These include communications satellites like Starlink; space stations such as the ISS; scientific satellites like the Hubble; Earth observation satellites from companies like Planet Labs, Umbra, and HawkEye 360; GPS; miniature CubeSats for education and research; and military/defense satellites.

Loading next visibility...
Identifier
40554, 2015-020C
Orbit
LEO
Country
Flag of CISCIS
Related business
Manufacturer
Resehetnev ISS
Mission
Operational Commercial Communications
Bus & Motor
STRELA-3M, Unknown motor
Mass
225 kg wet, 225 kg dry
Launch date (UTC)
2015-03-31 (11 years ago)
Launch vehicle
ROKOT
Launch site
Plesetsk Missile And Space Complex (PKMTR)
Object type
Payload
Rocket body
Debris
Shape & HBR
Cyl + 1 Ant, 3.5 m
Radar Cross Section
1.798 m², Large (>1 m²)

Expand to show TLE details & history
Last TLE update: 1 day ago

TLE from 1 day ago
0 GONETS M 13 (M23)
1 40554U 15020C   25306.51336190  .00000069  00000-0  42699-3 0  9998
2 40554  82.4866 171.9676 0013994 104.2396 256.0239 12.42860729480541
Epoch: 2025-11-02T12:19Z
TLE epoch observation values (Epoch: 2025-11-02T12:19:14.468Z)
Latitude
Longitude
-54.87069°
Altitude
1,499.875 km
Speed
7.113 km/s
True Right ascension
11h 27m 52s
True Declination
0° 00' 00"
Sunlit
Object was in daylight at epoch
Visualization orbit readout
Latitude
Unknown
Longitude
Unknown
Altitude
Unknown
Speed
Unknown
Apparent Right ascension
Unknown
Apparent Declination
Unknown
Sunlit
N/A
Visualization observer readout
Local Sidereal Time
16:04:34
Azimuth
Unknown
Elevation
Unknown
Doppler factor
Unknown
Orbital elements
Apogee altitude
1,502.865 km
Perigee altitude
1,480.838 km
Semi-major axis
7,869.988 km
Eccentricity
0.0014
Inclination
82.4866°
RAAN
171.9676°
Arg. of periapsis
104.2396°
True anomaly
255.86835°
Mean anomaly
256.0239°
Eccentric anomaly
255.94612°
Mean motion
3.10872 °/min
Orbital period
115.8 mins
BSTAR
0.00042699
Loading maneuver chart data...
Computing Atmospheric mass density...
Loading historical data...
Loading historical data...
Loading historical data...
Loading historical data...
Loading historical data...
Loading historical data...
Loading historical data...

Documentation

Showing up to 5 results
|